GW0147 Weather Reports


time (UTC)temp
C
wind
direction
speed
KPH
gust
KPH
rain 1hr
cm
rain 24hr
cm
rain mn
cm
humidity
%
barometer
mb
20260504001555 11 254 6.4 24.1 0.00 0.00 0.00 57 1011.3
20260504000052 11 172 11.3 24.1 0.00 0.00 0.00 54 1011.3
20260503234615 11 219 11.3 30.6 0.00 0.00 0.00 53 1011.3
20260503233052 12 223 8.0 30.6 0.00 0.00 0.00 53 1011.3
20260503231549 11 261 11.3 30.6 0.00 0.00 0.00 53 1011.3
20260503230048 11 262 8.0 37.0 0.00 0.00 0.00 57 1011.5
20260503224547 11 234 12.9 30.6 0.00 0.00 0.00 57 1011.8
20260503223047 11 265 12.9 35.4 0.00 0.00 0.00 57 1011.8
20260503221556 11 227 9.7 27.4 0.00 0.00 0.00 57 1011.9
20260503220047 11 268 14.5 40.2 0.00 0.00 0.00 55 1012.1
20260503214545 11 232 11.3 32.2 0.00 0.00 0.00 56 1011.9
20260503213046 11 265 14.5 33.8 0.00 0.00 0.00 56 1011.9
20260503211544 11 142 9.7 41.8 0.00 0.00 0.00 57 1011.7
20260503210044 11 196 16.1 32.2 0.00 0.00 0.00 58 1011.8
20260503204545 11 263 9.7 33.8 0.00 0.00 0.00 56 1011.9
20260503203053 11 286 16.1 41.8 0.00 0.00 0.00 56 1012.2
20260503201543 11 244 14.5 32.2 0.00 0.00 0.00 56 1012.2
20260503200040 12 229 11.3 40.2 0.00 0.00 0.00 54 1012.3
20260503194541 11 278 17.7 45.1 0.00 0.00 0.00 53 1012.6
20260503193036 11 259 12.9 30.6 0.00 0.00 0.00 55 1012.8
20260503191536 11 296 11.3 38.6 0.00 0.00 0.00 56 1013.1
20260503190032 11 257 12.9 35.4 0.00 0.00 0.00 57 1013.4
20260503184531 10 236 19.3 38.6 0.00 0.00 0.00 54 1013.5
20260503183031 11 267 16.1 35.4 0.00 0.00 0.00 51 1013.5
20260503181530 12 271 17.7 37.0 0.00 0.00 0.00 45 1013.5
20260503180029 12 234 16.1 32.2 0.00 0.00 0.00 42 1013.9
20260503174526 12 280 8.0 29.0 0.00 0.00 0.00 44 1014.1
20260503173028 11 228 14.5 32.2 0.00 0.00 0.00 43 1014.4
20260503171522 12 288 11.3 27.4 0.00 0.00 0.00 41 1014.5
20260503140108 7 310 11.3 33.8 0.00 0.00 0.00 75 1016.0
20260503081531 2 244 4.8 14.5 0.00 0.00 0.00 84 1016.2
20260503071524 1 165 1.6 6.4 0.00 0.00 0.00 87 1016.2
20260503054514 2 173 1.6 6.4 0.00 0.00 0.00 86 1016.5
20260503053012 2 173 0.0 6.4 0.00 0.00 0.00 84 1016.5
20260503051510 2 173 0.0 4.8 0.00 0.00 0.00 83 1016.6
20260503050017 3 172 0.0 4.8 0.00 0.00 0.00 82 1016.7
20260503044502 3 175 0.0 4.8 0.00 0.00 0.00 81 1016.8
20260503043105 3 223 1.6 9.7 0.00 0.00 0.00 80 1016.9
20260503041558 3 207 1.6 4.8 0.00 0.00 0.00 80 1016.9
20260503040111 4 229 1.6 6.4 0.00 0.00 0.00 79 1017.0
20260503034555 4 224 1.6 8.0 0.00 0.00 0.00 78 1016.9
20260503033054 4 248 1.6 9.7 0.00 0.00 0.00 77 1017.0
20260503031604 4 258 3.2 8.0 0.00 0.00 0.00 79 1017.0
20260503030054 4 194 1.6 8.0 0.00 0.00 0.00 79 1017.0
20260503024553 4 195 1.6 4.8 0.00 0.00 0.00 80 1017.2
20260503023052 4 180 1.6 6.4 0.00 0.00 0.00 79 1017.3
20260503021552 4 174 1.6 6.4 0.00 0.00 0.00 78 1017.4
20260503020054 4 167 0.0 6.4 0.00 0.00 0.00 76 1017.5
20260503014607 4 194 3.2 8.0 0.00 0.00 0.00 74 1017.5
20260503013050 5 215 3.2 6.4 0.00 0.00 0.00 72 1017.5
20260503011555 5 234 0.0 4.8 0.00 0.00 0.00 71 1017.4
20260503010050 5 214 0.0 6.4 0.00 0.00 0.00 73 1017.4
20260503004549 5 250 0.0 9.7 0.00 0.00 0.00 73 1017.3
20260503003049 5 271 1.6 6.4 0.00 0.00 0.00 74 1017.2